When you browse on this site, cookies collect data to enhance your experience and personalize the content and advertising you see.
Visit our Privacy Policy to learn more. By continuing to use the site, you agree to this use of cookies and data.
  • In Hungary
  • List of Countries
  • For 7 days
  • Water Temperature
  • Satellite Maps
  • Weather Map
  • News
  • Weather Widgets
  • user-avatar
    Login

    Hourly Weather Greblevo

    Today, 17 January, Thursday

    Time Temperature Precipitation Wind Pressure Humidity
    00:00 -8°C° 0 mm 3 mps 734 mmHg 92%
    01:00 -9°C° 0 mm 3 mps 735 mmHg 92%
    02:00 -8°C° 0 mm 2 mps 735 mmHg 92%
    03:00 -10°C° 0 mm 3 mps 735 mmHg 93%
    04:00 -12°C° 0 mm 3 mps 735 mmHg 93%
    05:00 -12°C° 0 mm 3 mps 735 mmHg 93%
    06:00 -13°C° 0 mm 3 mps 735 mmHg 93%
    07:00 -13°C° 0 mm 3 mps 735 mmHg 94%
    08:00 -14°C° 0 mm 4 mps 734 mmHg 94%
    09:00 -13°C° 0.2 mm 5 mps 733 mmHg 93%
    10:00 -11°C° 0.2 mm 6 mps 733 mmHg 92%
    11:00 -10°C° 0.2 mm 6 mps 732 mmHg 91%
    12:00 -9°C° 0.7 mm 7 mps 732 mmHg 90%
    13:00 -7°C° 0.7 mm 7 mps 731 mmHg 90%
    14:00 -6°C° 0 mm 7 mps 730 mmHg 91%
    15:00 -6°C° 0.4 mm 7 mps 730 mmHg 89%
    16:00 -4°C° 0.4 mm 7 mps 729 mmHg 88%
    17:00 -4°C° 0.4 mm 7 mps 729 mmHg 86%
    18:00 -3°C° 0.6 mm 7 mps 728 mmHg 86%
    19:00 -3°C° 0.6 mm 7 mps 728 mmHg 86%
    20:00 -2°C° 0.6 mm 7 mps 727 mmHg 86%
    21:00 -2°C° 0.2 mm 7 mps 727 mmHg 87%
    22:00 -2°C° 0.2 mm 7 mps 727 mmHg 87%
    23:00 -1°C° 0.2 mm 6 mps 727 mmHg 87%

    Tomorrow, 18 January, Friday

    Time Temperature Precipitation Wind Pressure Humidity
    00:00 -1°C° 0 mm 6 mps 727 mmHg 87%
    01:00 -2°C° 0 mm 6 mps 728 mmHg 87%
    02:00 -2°C° 0 mm 6 mps 728 mmHg 86%
    03:00 -2°C° 0.1 mm 6 mps 729 mmHg 86%
    04:00 -1°C° 0.1 mm 5 mps 730 mmHg 86%
    05:00 -1°C° 0.1 mm 5 mps 730 mmHg 86%
    06:00 -1°C° 0.1 mm 5 mps 731 mmHg 87%
    07:00 -1°C° 0.1 mm 5 mps 731 mmHg 88%
    08:00 -1°C° 0.1 mm 4 mps 732 mmHg 88%
    09:00 -2°C° 0.1 mm 4 mps 732 mmHg 89%
    10:00 -2°C° 0.1 mm 4 mps 733 mmHg 89%
    11:00 -2°C° 0.1 mm 3 mps 734 mmHg 89%
    12:00 -2°C° 0.2 mm 3 mps 734 mmHg 90%
    13:00 -2°C° 0.2 mm 2 mps 734 mmHg 91%
    14:00 -3°C° 0.2 mm 2 mps 735 mmHg 92%
    15:00 -1°C° 0.3 mm 1 mps 734 mmHg 93%
    16:00 -1°C° 0.3 mm 1 mps 734 mmHg 95%
    17:00 -2°C° 0.3 mm 1 mps 734 mmHg 96%
    18:00 -5°C° 1.2 mm 2 mps 734 mmHg 96%
    19:00 -7°C° 1.2 mm 3 mps 733 mmHg 96%
    20:00 -8°C° 1.2 mm 4 mps 733 mmHg 96%
    21:00 -8°C° 0.7 mm 3 mps 733 mmHg 95%
    22:00 -8°C° 0.7 mm 3 mps 733 mmHg 94%
    23:00 -9°C° 0.7 mm 3 mps 734 mmHg 94%

    Day after tomorrow, 19 January, Saturday

    Time Temperature Precipitation Wind Pressure Humidity
    00:00 -9°C° 0 mm 3 mps 735 mmHg 94%
    01:00 -9°C° 0 mm 2 mps 736 mmHg 94%
    02:00 -10°C° 0 mm 2 mps 736 mmHg 94%
    03:00 -12°C° 0 mm 2 mps 737 mmHg 94%
    04:00 -13°C° 0 mm 3 mps 737 mmHg 94%
    05:00 -14°C° 0 mm 3 mps 738 mmHg 94%
    06:00 -13°C° 0 mm 3 mps 738 mmHg 94%
    07:00 -13°C° 0 mm 3 mps 738 mmHg 94%
    08:00 -12°C° 0 mm 3 mps 739 mmHg 93%
    09:00 -11°C° 0 mm 4 mps 739 mmHg 91%
    10:00 -10°C° 0 mm 4 mps 739 mmHg 89%
    11:00 -10°C° 0 mm 5 mps 740 mmHg 87%
    12:00 -10°C° 0 mm 5 mps 740 mmHg 87%
    13:00 -8°C° 0 mm 5 mps 740 mmHg 87%
    14:00 -8°C° 0 mm 5 mps 740 mmHg 86%
    15:00 -8°C° 0.1 mm 4 mps 740 mmHg 87%
    16:00 -8°C° 0.1 mm 4 mps 741 mmHg 88%
    17:00 -8°C° 0.1 mm 4 mps 741 mmHg 89%
    18:00 -8°C° 0.2 mm 4 mps 741 mmHg 90%
    19:00 -8°C° 0.2 mm 4 mps 742 mmHg 91%
    20:00 -8°C° 0.2 mm 3 mps 742 mmHg 92%
    21:00 -8°C° 0 mm 3 mps 742 mmHg 92%
    22:00 -9°C° 0 mm 3 mps 743 mmHg 92%
    23:00 -10°C° 0 mm 3 mps 743 mmHg 93%

    20 January, Sunday

    Time Temperature Precipitation Wind Pressure Humidity
    00:00 -10°C° 0 mm 3 mps 743 mmHg 92%
    01:00 -9°C° 0 mm 3 mps 743 mmHg 92%
    02:00 -9°C° 0 mm 4 mps 744 mmHg 91%
    03:00 -9°C° 0 mm 4 mps 743 mmHg 91%
    04:00 -10°C° 0 mm 4 mps 743 mmHg 90%
    05:00 -10°C° 0 mm 4 mps 742 mmHg 90%
    06:00 -11°C° 0.1 mm 5 mps 742 mmHg 89%
    07:00 -11°C° 0.1 mm 5 mps 742 mmHg 89%
    08:00 -10°C° 0.1 mm 5 mps 741 mmHg 89%
    09:00 -9°C° 0.1 mm 6 mps 741 mmHg 88%
    10:00 -8°C° 0.1 mm 6 mps 741 mmHg 87%
    11:00 -6°C° 0.1 mm 6 mps 741 mmHg 87%
    12:00 -6°C° 0.4 mm 5 mps 741 mmHg 88%
    13:00 -6°C° 0.4 mm 5 mps 740 mmHg 89%
    14:00 -5°C° 0.4 mm 4 mps 740 mmHg 91%
    15:00 -5°C° 0.3 mm 4 mps 740 mmHg 91%
    16:00 -6°C° 0.3 mm 3 mps 740 mmHg 92%
    17:00 -7°C° 0.3 mm 3 mps 740 mmHg 92%
    18:00 -8°C° 0.1 mm 3 mps 740 mmHg 92%
    19:00 -7°C° 0.1 mm 2 mps 741 mmHg 93%
    20:00 -8°C° 0.1 mm 2 mps 741 mmHg 93%
    21:00 -8°C° 0 mm 2 mps 741 mmHg 94%
    22:00 -9°C° 0 mm 2 mps 741 mmHg 95%
    23:00 -10°C° 0 mm 2 mps 742 mmHg 95%

    21 January, Monday

    Time Temperature Precipitation Wind Pressure Humidity
    00:00 -12°C° 0 mm 2 mps 742 mmHg 96%
    01:00 -13°C° 0 mm 2 mps 742 mmHg 96%
    02:00 -15°C° 0 mm 2 mps 742 mmHg 96%
    03:00 -15°C° 0 mm 2 mps 742 mmHg 96%
    04:00 -16°C° 0 mm 2 mps 742 mmHg 96%
    05:00 -17°C° 0 mm 2 mps 742 mmHg 96%
    06:00 -17°C° 0 mm 2 mps 742 mmHg 96%
    07:00 -18°C° 0 mm 2 mps 742 mmHg 97%
    08:00 -18°C° 0 mm 2 mps 742 mmHg 97%
    09:00 -17°C° 0 mm 2 mps 742 mmHg 96%
    10:00 -16°C° 0 mm 2 mps 742 mmHg 96%
    11:00 -15°C° 0 mm 2 mps 743 mmHg 95%
    12:00 -14°C° 0 mm 2 mps 743 mmHg 94%
    13:00 -14°C° 0 mm 2 mps 743 mmHg 94%
    14:00 -13°C° 0 mm 2 mps 743 mmHg 93%
    15:00 -14°C° 0 mm 2 mps 743 mmHg 93%
    16:00 -16°C° 0 mm 2 mps 744 mmHg 94%
    17:00 -17°C° 0 mm 2 mps 744 mmHg 94%
    18:00 -17°C° 0 mm 2 mps 744 mmHg 95%
    19:00 -18°C° 0 mm 2 mps 744 mmHg 95%
    20:00 -19°C° 0 mm 2 mps 745 mmHg 96%
    21:00 -20°C° 0 mm 2 mps 745 mmHg 96%
    22:00 -20°C° 0 mm 2 mps 745 mmHg 96%
    23:00 -23°C° 0 mm 3 mps 745 mmHg 97%

    22 January, Tuesday

    Time Temperature Precipitation Wind Pressure Humidity
    00:00 -23°C° 0 mm 3 mps 745 mmHg 97%
    01:00 -23°C° 0 mm 3 mps 745 mmHg 97%
    02:00 -23°C° 0 mm 2 mps 746 mmHg 97%
    03:00 -23°C° 0 mm 2 mps 746 mmHg 97%
    04:00 -23°C° 0 mm 2 mps 746 mmHg 97%
    05:00 -23°C° 0 mm 2 mps 746 mmHg 97%
    06:00 -21°C° 0 mm 2 mps 746 mmHg 97%
    07:00 -21°C° 0 mm 2 mps 747 mmHg 97%
    08:00 -21°C° 0 mm 2 mps 747 mmHg 97%
    09:00 -20°C° 0 mm 2 mps 747 mmHg 96%
    10:00 -19°C° 0 mm 2 mps 748 mmHg 95%
    11:00 -18°C° 0 mm 2 mps 748 mmHg 94%
    12:00 -18°C° 0 mm 2 mps 748 mmHg 94%
    13:00 -17°C° 0 mm 2 mps 748 mmHg 94%
    14:00 -17°C° 0 mm 2 mps 748 mmHg 94%
    15:00 -18°C° 0 mm 2 mps 748 mmHg 95%
    16:00 -19°C° 0 mm 2 mps 749 mmHg 96%
    17:00 -20°C° 0 mm 2 mps 749 mmHg 98%
    18:00 -21°C° 0 mm 2 mps 749 mmHg 98%
    19:00 -21°C° 0 mm 2 mps 749 mmHg 98%
    20:00 -23°C° 0 mm 2 mps 749 mmHg 98%
    21:00 -23°C° 0 mm 2 mps 749 mmHg 98%
    22:00 -23°C° 0 mm 2 mps 749 mmHg 99%
    23:00 -24°C° 0 mm 2 mps 749 mmHg 99%
    Show more